User: anonymous
Location: Young's Pond
(41.2695°N, 72.7766°W)
Time: 15:14:32
(UTC-04:00)
Language:

CZ-4B R/B - Orbit

View from above orbital plane
View from above orbital plane
View from above satellite
View from above satellite

Ground track
Ground track

The orbit data is extracted from the following two-line orbital elements,

1 29093U 06015B   14207.40248870  .00004600  00000-0  16817-3 0  3510
2 29093 097.5209 287.0367 0092123 122.8359 007.3185 15.24614480455550
Epoch (UTC): 26 July 2014 09:39:35
Eccentricity: 0.0092123
inclination: 97.5209°
perigee height: 428 km
apogee height: 555 km
right ascension of ascending node: 287.0367°
argument of perigee: 122.8359°
revolutions per day: 15.24614480
mean anomaly at epoch: 7.3185°
orbit number at epoch: 45555

The dashed part of the orbit path shows where the satellite is in the earth's shadow,  

DLR